Location: Risskov
(56.1972°N, 10.2480°E)
Time: 23:42:07
(UTC+00:00)

Cosmos 1076 Rocket - Pass Details

Date: 05 July 2020
Orbit: 589 x 613 km, 82.5° (Epoch: 14 August)

Event Time Altitude Azimuth Distance (km) Brightness Sun altitude
Exits shadow 21:36:06 10° 167° (SSE) 1,975 5.5 -7.9°
Reaches altitude 10° 21:36:11 10° 167° (SSE) 1,943 5.5 -7.9°
Maximum altitude 21:40:17 46° 94° (E) 816 4.0 -8.1°
Drops below altitude 10° 21:44:24 10° 22° (NNE) 1,945 6.8 -8.4°
Sets 21:46:40 0° 16° (NNE) 2,849 7.9 -8.5°
